Regional Weather Roundup
Issued by NWS

Home | Current Version | Previous Version | Graphics & Text | Print | Product List | Glossary On
Versions: 1 2 3 4 5 6 7 8 9 10 11 12 13 14 15 16 17 18 19 20 21 22 23 24 25 26 27
000
ASUS45 KSLC 270310
RWRUT

UTAH REGIONAL WEATHER ROUNDUP
NATIONAL WEATHER SERVICE SALT LAKE CITY UT
900 PM MDT FRI AUG 26 2016

UTZ001>011-023>025-270400-

NORTHERN UTAH

CITY           SKY/WX    TMP DP  RH WIND       PRES   REMARKS
BRIGHAM CITY     N/A     71  31  23 N3        30.00R
HILL AFB       PTCLDY    69  28  21 NE3       30.02R
LOGAN          PTCLDY    62  36  37 N10       30.00R
OGDEN          PTCLDY    68  33  27 S7        29.99R
PROVO AIRPORT  CLEAR     72  46  40 W12       30.01R
SALT LAKE CITY PTCLDY    75  27  17 E5        29.98R
VERNAL         LGT RAIN  65  45  48 VRB5      30.11R
WENDOVER       PTCLDY    73  27  17 S3        29.98R
HEBER CITY     CLEAR     63  30  29 E5        30.06R
WEST JORDAN    CLEAR     68  32  25 CALM      30.02R

$$

UTZ012>022-026-027-270400-

SOUTHERN/CENTRAL UTAH

CITY           SKY/WX    TMP DP  RH WIND       PRES   REMARKS
BLANDING       CLOUDY    68  46  44 CALM      30.23R
BRYCE CANYON   CLOUDY    48  44  86 NE22G29   30.32R
CEDAR CITY     MOCLDY    65  42  43 N13       30.12R
MILFORD        CLOUDY    69  43  38 SE10      30.06R
MOAB/CYNLANDS  CLOUDY    71  42  35 NW13      30.07R
PRICE          CLOUDY    59  48  67 N7        30.16R
ST GEORGE      MOCLDY    81  52  36 SE14      29.95R

$$

REGIONAL REPORTS     COLORADO/ARIZONA

CITY           SKY/WX    TMP DP  RH WIND       PRES   REMARKS
CRAIG, CO      CLOUDY    55  46  71 E5        30.20S
GRAND JUNCTION RAIN      61  51  70 N25G35    30.13R
RIFLE          LGT RAIN  67  41  38 NW22G30   30.14R
MONTROSE       CLOUDY    65  46  50 SE8       30.16R
CORTEZ         CLOUDY    61  52  72 CALM      30.17R
PAGE, AZ       CLOUDY    70  52  52 N12       30.09R
GRAND CANYON   CLOUDY    55  50  83 CALM      30.26S
KINGMAN        PTCLDY    76  53  44 E7        30.00R
FLAGSTAFF      MOCLDY    51  50  96 CALM      30.28R

$$

REGIONAL REPORTS    NEVADA/IDAHO/WYOMING

CITY           SKY/WX    TMP DP  RH WIND       PRES   REMARKS
LAS VEGAS, NV  MOCLDY    86  46  24 S12G22    29.83R
ELY            MOCLDY    69  26  20 S13       30.10R
ELKO           CLEAR     69  19  15 CALM      30.02R
POCATELLO, ID  CLEAR     61  29  29 S9        30.01R
BURLEY         CLEAR     60  44  55 SW6       29.97R
EVANSTON, WY   CLEAR     57  17  21 W13       30.16R
ROCK SPRINGS   CLOUDY    58  35  42 SE10      30.14R

$$




USA.gov is the U.S. government's official web portal to all federal, state and local government web resources and services.